Flag for Austria Weather past 2 weeks in Vöcklabruck, Upper Austria, Austria

Now
59 °F

Refreshingly cool.


Feels Like: 58 °F
Forecast: 41 / 66 °F
Wind: 6 mph from West

Location: Kremsmuenster

Current Time: Apr 22, 2015 at 12:05:36 AM

Latest Report: Apr 21, 2015 at 10:00 PM


Visibility: N/A

Pressure: 30.27 "Hg

Humidity: 46%

Dew point: 38 °F

Location of VöcklabruckLocation

Historic Weather in Vöcklabruck — Graph

°F

Vöcklabruck temperature yesterday

Maximum temperature yesterday: 68 °F (at 5:00 PM)
Minimum temperature yesterday: 46 °F (at 6:00 AM)
Average temperature yesterday: 57 °F

Past Weeks' High & Low Weather Summary

 TemperatureHumidityPressure
High74 °F (Apr 15, 5:00 PM)95% (Apr 17, 10:00 PM)30.64 "Hg (Apr 17, 10:00 PM)
Low33 °F (Apr 6, 10:00 PM)22% (Apr 16, 3:00 PM)29.83 "Hg (Apr 17, 5:00 PM)
Average53 °F59%30.25 "Hg
* Reported Apr 6 10:00 PM — Apr 21 10:00 PM, Vöcklabruck, Weather by CustomWeather, © 2015

Note: Actual official high and low records may vary slightly from our data, if they occured in-between our weather recording intervals... More about our weather records

Advertising

Vöcklabruck weather history for previous 24 hours

 ConditionsComfort  
Time TempWeatherWind HumidityBarometerVisibility
10:00 PM
Tue, Apr 21
59 °FRefreshingly cool.6 mph46%30.27 "HgN/A
9:00 PM60 °FRefreshingly cool.6 mph42%30.24 "HgN/A
8:00 PM63 °FPassing clouds.6 mph35%30.21 "Hg28 mi
7:00 PM65 °FMild.8 mph32%30.20 "HgN/A
6:00 PM67 °FMild.9 mph29%30.20 "HgN/A
5:00 PM68 °FPassing clouds.5 mph31%30.21 "Hg34 mi
4:00 PM67 °FMild.8 mph35%30.22 "HgN/A
3:00 PM66 °FMild.3 mph39%30.25 "HgN/A
2:00 PM64 °FMild.6 mph39%30.28 "HgN/A
1:00 PM62 °FRefreshingly cool.5 mph43%30.30 "HgN/A
12:00 PM60 °FRefreshingly cool.7 mph44%30.30 "HgN/A
11:00 AM56 °FPassing clouds.3 mph58%30.33 "Hg34 mi
10:00 AM54 °FCool.1 mph59%30.34 "HgN/A
9:00 AM52 °FCool.3 mph62%30.34 "HgN/A
8:00 AM48 °FScattered clouds.5 mph68%30.34 "Hg25 mi
7:00 AM47 °FPassing clouds.7 mph68%30.34 "Hg25 mi
6:00 AM46 °FCool.6 mph69%30.32 "HgN/A
4:00 AM49 °FCool.8 mph62%30.29 "HgN/A
3:00 AM49 °FCool.5 mph60%30.28 "HgN/A
2:00 AM49 °FCool.6 mph60%30.28 "HgN/A
1:00 AM51 °FCool.7 mph56%30.27 "HgN/A
12:00 AM53 °FCool.7 mph54%30.26 "HgN/A
Weather by CustomWeather, © 2015

See weather overviewHow to use our weather pages